Regional Weather Roundup
Issued by NWS Upton, NY

Current Version | Previous Version | Graphics & Text | Print | Product List | Glossary Off
Versions: 1 2 3 4 5 6 7 8 9 10 11 12 13 14 15 16 17 18 19 20 21 22 23 24 25 26 27 28 29 30 31 32 33 34 35 36 37 38 39 40 41 42 43 44 45 46 47 48 49

000
ASUS41 KOKX 031008
RWROKX

REGIONAL WEATHER ROUNDUP
NATIONAL WEATHER SERVICE NEW YORK NY
600 AM EDT SUN MAY 03 2015

NOTE: "FAIR" INDICATES FEW OR NO CLOUDS BELOW 12,000 FEET WITH NO
SIGNIFICANT WEATHER AND/OR OBSTRUCTIONS TO VISIBILITY.

NYZ071-072-176-178-NJZ106-104-031100-
NEW YORK CITY METRO AREA


CITY           SKY/WX    TMP DP  RH WIND       PRES   REMARKS
CENTRAL PARK   CLEAR     51  35  54 VRB5      30.07S
LAGUARDIA APRT PTCLDY    51  36  56 S5        30.04F
KENNEDY INTL   PTCLDY    47  39  74 SW6       30.06S
NEWARK/LIBERTY PTCLDY    48  38  68 CALM      30.05S
BRNX BOT. GARD   N/A     48  36  61 N2        30.06S
TETERBORO      CLEAR     46  37  71 CALM      30.05R
$$

NYZ177-179-078>081-031100-
LONG ISLAND NEW YORK

CITY           SKY/WX    TMP DP  RH WIND       PRES   REMARKS
FARMINGDALE    CLEAR     45  40  82 CALM      30.06S
ISLIP          PTCLDY    44  38  79 SW3       30.04S
SHIRLEY        CLEAR     40  37  89 CALM      30.06S
WESTHAMPTON    PTCLDY    33  30  88 CALM      30.07S
MONTAUK POINT    N/A     48  43  82 CALM      30.07R
$$

NYZ052-065-067-031100-
HUDSON VALLEY

CITY           SKY/WX    TMP DP  RH WIND       PRES   REMARKS
WHITE PLAINS   CLEAR     43  38  82 NW3       30.04S
NEWBURGH       CLEAR     45  41  87 CALM      30.04S
MONTGOMERY     CLEAR     39  37  92 CALM      30.03S FOG
POUGHKEEPSIE   PTCLDY    43  38  82 CALM      30.04R
ALBANY         PTCLDY    50  42  74 S3        30.03R
$$

NJZ001-105-106-008-010-013-015-019>022-104-031100-
NEW JERSEY

CITY           SKY/WX    TMP DP  RH WIND       PRES   REMARKS
NEWARK/LIBERTY PTCLDY    48  38  68 CALM      30.05S
TETERBORO      CLEAR     46  37  71 CALM      30.05R
CALDWELL       CLEAR     41  38  89 CALM      30.06R
MORRISTOWN       N/A     39  37  93 CALM      30.05S FOG
SOMERVILLE     CLEAR     39  35  86 CALM      30.04S
SUSSEX         CLEAR     41  38  89 CALM      30.06R
ANDOVER          N/A     42  41  96 CALM      30.06R
TRENTON        PTCLDY    46  39  76 CALM      30.06R
MILLVILLE      CLOUDY    45  43  93 CALM      30.05R
ATLANTIC CITY  CLOUDY    50  41  71 S5        30.05S
WRIGHTSTOWN    MOCLDY    43  41  91 CALM      30.03S
TOMS RIVER     PTCLDY    37  34  87 CALM      30.07R
BELMAR         CLEAR     45  36  70 CALM      30.06S
$$

PAZ047>061-062-071-031100-
EASTERN PENNSYLVANIA

CITY           SKY/WX    TMP DP  RH WIND       PRES   REMARKS
PHILADELPHIA   MOCLDY    50  43  77 E5        30.06R
ALLENTOWN      PTCLDY    44  41  89 CALM      30.06R
SCRANTON       MOCLDY    46  32  58 SE6       30.06R
$$

CTZ002-004>006-009-010-012-RIZ004-006-007-MAZ004-011-015-031100-
SOUTHERN NEW ENGLAND
 IN CT

CITY           SKY/WX    TMP DP  RH WIND       PRES   REMARKS
BRADLEY INTL   MOCLDY    46  37  71 S6        30.02R
HARTFORD       CLEAR     45  36  70 S5        30.04R
DANBURY        CLEAR     39  34  82 CALM      30.05S
WTRBRY/OXFORD  CLEAR     43  32  65 CALM      30.05
BRIDGEPORT     CLEAR     47  42  83 W3        30.05R
MERIDEN        FAIR      40  36  86 CALM      30.05R
NEW HAVEN      PTCLDY    43  38  82 CALM      30.05R
CHESTER        FAIR      46  36  66 W7        30.04S
GROTON         MOCLDY    45  42  89 SW5       30.05S
WILLIMANTIC    CLEAR     42  37  82 CALM      30.04R

 IN RI

CITY           SKY/WX    TMP DP  RH WIND       PRES   REMARKS
PROVIDENCE     MOCLDY    46  38  73 S3        30.04S
BLOCK ISLAND   CLOUDY    46  39  76 W10       30.06R
WESTERLY       CLOUDY    46  43  89 CALM      30.06R

 IN MA

CITY           SKY/WX    TMP DP  RH WIND       PRES   REMARKS
BOSTON         PTCLDY    46  40  79 S7        30.02R
WORCESTER      CLOUDY    46  37  71 W10       30.01R
WESTFIELD      CLOUDY    46  39  76 CALM      30.02R
PROVINCETOWN   PTCLDY    45  43  93 S8        30.05S
NANTUCKET      PTCLDY    36  34  92 CALM      30.07R
$$

ANZ330-335-338-340-345-350-353-355-031100-
COASTAL MARINE OBSERVATIONS


STATION/POSITION TIME  SKY/WX   TEMP    WIND        PRES    VSBY  WAVE
                                AIR SEA DIR/SP/G                  HT/PER
                 (UTC)          (F)     (DEG/KT/KT) (MB)    (MI)  (FT/S)
NY HARB ENTRANCE 0950            49 50   CALM  /  2 1017.5          5/ 8
4S FIRE IS       0903               47                N/A           5/ 9
20S FIRE ISLAND  0950            46 46     CALM     1018.2          5/ 9
GREAT SOUTH BAY  0900            51 56  260/ 10/ 12   N/A
23SW MTP         0950            45 44  240/  4/  6 1018.0          5/ 8
HUDSON CANYON    NOT AVBL
EXECUTION ROCKS  NOT AVBL
WESTERN LI SOUND NOT AVBL
CENTRAL LI SOUND NOT AVBL
EASTERN LI SOUND 0900            46     260/  6/  8   N/A
ROBBINS REEF     0900            49     250/  2/  3 1016.6
$$


>>>>>>>>>>>>>>>>>>>>>>>>>>>> KEY <<<<<<<<<<<<<<<<<<<<<<<<<<<
>                                                          <
>     SKY/WX - SKY CONDITION/PRESENT WEATHER               <
>     TMP    - TEMPERATURE IN FAHRENHEIT                   <
>     DP     - DEWPOINT IN FAHRENHEIT                      <
>     RH     - RELATIVE HUMIDITY IN PERCENT                <
>     WIND   - DIRECTION AND SPEED IN MPH                  <
>     PRES   - MEAN SEA LEVEL PRESSURE IN INCHES OF HG     <
>     WCI    - WIND CHILL INDEX                            <
>     VSB    - VISIBILITY IN MILES                         <
>     HX     - HEAT INDEX                                  <
>     TC     - TEMPERATURE IN CELSIUS                      <
>     VRB    - VARIABLE WIND DIRECTION                     <
>                                                          <
>>>>>>>>>>>>>>>>>>>>>>>>>>>> KEY <<<<<<<<<<<<<<<<<<<<<<<<<<<





USA.gov is the U.S. government's official web portal to all federal, state and local government web resources and services.